GFSFLT2_925_temp_051.txt.gz
Temp
4 3 3 3 2 3 2 3 4 4 4 5 5 5 4 4 4 4 4 3 3 3 4 4 4 4 4
2 2 2 2 1 2 1 2 2 3 3 4 3 3 3 3 3 3 2 2 2 2 3 2 3 3 4
1 1 1 1 1 1 1 1 1 2 2 2 2 1 2 1 2 2 2 2 1 1 1 1 2 2 3
0 0 -0 -0 -1 -1 -0 1 1 0 0 -0 -0 -0 1 1 0 1 0 0 0 0 1 1 1 1 1
0 0 -0 -0 -1 -2 -1 -1 -1 -1 -0 -0 -0 -0 -0 -0 -0 0 0 0 0 -0 -0 0 0 0 1
-2 -1 -2 -2 -2 -2 -2 -2 -0 -2 -3 -2 -1 -1 -1 -0 0 0 0 0 -1 -1 -1 -0 -0 1 1
-2 -2 -2 -3 -2 -3 -3 -3 -3 -3 -4 -2 -3 -3 -2 -1 -1 -1 -2 -2 -2 -1 -1 -0 0 0 0
-3 -3 -3 -3 -3 -3 -3 -4 -3 -4 -4 -3 -4 -3 -2 -2 -1 -1 -2 -2 -2 -1 -1 -1 -1 -0 -0
-3 -3 -3 -3 -4 -4 -4 -4 -3 -3 -5 -5 -4 -4 -4 -4 -3 -3 -3 -2 -2 -2 -1 -1 -1 -1 -1
-3 -4 -4 -4 -4 -4 -4 -5 -5 -4 -5 -5 -5 -5 -3 -3 -3 -2 -2 -2 -3 -3 -3 -3 -3 -2 -2
-4 -4 -4 -5 -5 -5 -5 -5 -5 -5 -5 -5 -6 -5 -5 -5 -4 -4 -4 -3 -3 -3 -3 -3 -3 -3 -3
-5 -5 -5 -5 -5 -5 -5 -6 -6 -6 -6 -6 -7 -7 -6 -6 -5 -4 -5 -5 -5 -4 -4 -4 -3 -4 -4
-6 -5 -6 -6 -6 -6 -6 -6 -6 -6 -6 -6 -6 -7 -7 -7 -6 -6 -6 -5 -6 -6 -5 -5 -5 -5 -5
-6 -6 -6 -7 -7 -7 -7 -7 -8 -6 -5 -6 -6 -7 -7 -8 -8 -7 -7 -6 -5 -6 -6 -7 -6 -6 -6
-6 -7 -6 -6 -7 -7 -7 -8 -8 -7 -7 -7 -6 -6 -7 -7 -8 -8 -7 -6 -6 -6 -7 -6 -6 -6 -5
-7 -7 -7 -7 -7 -7 -7 -8 -8 -7 -7 -8 -8 -9 -8 -6 -5 -5 -6 -6 -6 -7 -7 -6 -6 -5 -5
-7 -7 -7 -7 -8 -8 -9 -9 -9 -8 -8 -9 -9 -9 -7 -6 -5 -7 -7 -6 -6 -6 -6 -6 -6 -5 -5

GFSFLT2_925_temp_054.txt.gz
Temp
4 4 4 3 2 2 2 4 4 4 3 4 4 5 5 5 4 4 4 5 5 4 4 4 5 4 4
3 2 2 1 2 1 1 2 2 3 3 3 3 3 4 4 3 4 4 4 4 3 3 4 3 3 3
3 1 1 2 1 1 1 2 2 2 2 3 3 3 2 2 3 2 2 2 2 2 2 2 2 2 3
2 2 1 -0 -0 0 3 2 2 1 1 2 1 1 1 1 1 2 2 2 1 1 1 1 1 1 2
2 2 2 2 2 1 2 2 2 -0 1 1 0 1 1 0 1 1 1 1 1 1 0 1 1 1 1
1 3 2 1 1 0 0 1 2 -1 -1 1 0 0 0 0 -1 -0 0 0 -0 -1 -0 -0 0 0 1
1 1 1 -0 -2 -2 -1 -1 0 -0 -2 -0 -1 -0 -0 -1 -1 -1 -1 -2 -2 -1 -1 -1 -0 0 1
-1 -1 -2 -2 -2 -2 -2 -2 -1 -1 -3 -1 -0 -0 -0 -1 -2 -1 -1 -2 -2 -2 -1 -1 -0 -0 0
-3 -3 -3 -3 -3 -2 -2 -2 -1 -1 -2 -3 -1 -1 -1 -1 -2 -2 -2 -1 -2 -2 -2 -1 -1 -0 -0
-3 -3 -4 -4 -3 -3 -3 -3 -2 -2 -3 -3 -3 -3 -2 -1 -2 -2 -2 -2 -3 -2 -2 -2 -2 -2 -2
-3 -3 -4 -4 -4 -5 -5 -5 -4 -3 -3 -4 -5 -4 -3 -3 -2 -2 -2 -2 -2 -3 -3 -3 -3 -3 -2
-3 -3 -3 -4 -5 -5 -6 -6 -6 -5 -5 -6 -6 -6 -5 -5 -3 -2 -2 -3 -3 -3 -4 -4 -4 -4 -4
-3 -4 -4 -5 -5 -6 -6 -6 -6 -6 -5 -6 -6 -6 -6 -6 -5 -5 -5 -4 -4 -4 -4 -4 -4 -4 -4
-4 -4 -5 -6 -5 -5 -6 -5 -5 -5 -6 -5 -6 -7 -7 -6 -6 -6 -6 -5 -4 -4 -4 -5 -5 -5 -5
-5 -5 -4 -5 -5 -5 -6 -6 -6 -5 -4 -5 -6 -7 -7 -7 -7 -6 -5 -5 -4 -5 -5 -5 -5 -5 -4
-5 -6 -6 -5 -5 -6 -6 -6 -6 -5 -5 -5 -6 -6 -6 -5 -6 -6 -5 -4 -4 -5 -5 -5 -5 -5 -4
-7 -7 -7 -7 -7 -6 -6 -6 -6 -6 -6 -6 -6 -7 -6 -5 -4 -5 -6 -5 -5 -5 -4 -4 -4 -4 -4

GFSFLT2_925_temp_057.txt.gz
Temp
5 5 4 4 3 3 2 2 3 4 3 3 4 4 5 5 5 5 6 6 5 5 5 6 5 6 5
4 3 3 2 2 2 2 1 2 2 3 3 3 3 4 4 4 4 4 4 4 4 4 4 4 5 4
3 3 2 2 2 1 2 3 2 2 1 1 2 3 3 2 2 2 3 3 3 3 3 3 3 3 3
3 3 2 1 1 1 2 3 3 2 1 2 1 2 2 2 1 2 2 2 2 2 2 2 2 2 2
3 3 3 3 2 1 2 2 2 2 1 1 1 1 1 1 1 1 1 1 1 1 1 1 1 1 1
2 3 3 2 2 1 0 -0 1 0 -0 0 1 0 1 0 0 0 0 1 1 -0 -0 -0 0 0 1
1 2 1 -0 -1 -1 -1 -1 -0 -1 -1 -1 1 -0 1 0 -1 -1 -0 -0 -1 -1 -1 -1 -0 -0 0
-1 -1 -1 -1 -2 -2 -2 -2 -1 -0 -1 -1 0 -0 -0 -0 -0 -1 -1 -1 -1 -1 -1 -1 -1 -0 0
-2 -2 -2 -2 -2 -2 -2 -2 -1 0 -1 -2 -1 -1 -1 -0 -1 -1 -1 -1 -1 -1 -1 -1 -1 -0 -0
-2 -3 -3 -3 -3 -3 -3 -3 -2 -2 -2 -3 -3 -3 -3 -0 -1 -1 -1 -2 -2 -2 -1 -2 -2 -2 -1
-3 -3 -3 -3 -3 -4 -4 -4 -4 -3 -3 -4 -5 -4 -3 -3 -3 -2 -2 -2 -2 -2 -3 -3 -3 -2 -2
-3 -2 -2 -3 -4 -4 -5 -4 -5 -5 -4 -5 -6 -5 -5 -5 -4 -2 -3 -2 -2 -3 -3 -3 -3 -3 -3
-3 -2 -3 -4 -4 -4 -5 -6 -5 -4 -4 -4 -5 -7 -6 -6 -6 -6 -5 -4 -4 -4 -3 -3 -4 -4 -4
-3 -3 -4 -4 -5 -5 -5 -5 -5 -5 -4 -5 -5 -6 -7 -6 -6 -6 -6 -5 -4 -4 -4 -4 -5 -5 -4
-4 -4 -4 -4 -4 -4 -5 -5 -5 -5 -5 -4 -4 -5 -5 -6 -7 -7 -6 -6 -5 -4 -4 -4 -5 -5 -5
-4 -5 -5 -5 -5 -5 -5 -6 -6 -5 -5 -5 -5 -5 -6 -6 -6 -6 -6 -6 -5 -4 -4 -5 -5 -5 -4
-5 -6 -6 -6 -6 -6 -6 -6 -6 -6 -6 -5 -6 -6 -6 -6 -5 -4 -4 -5 -5 -5 -5 -5 -5 -4 -4

GFSFLT2_925_temp_060.txt.gz
Temp
5 4 3 3 3 3 3 2 2 3 3 4 4 5 5 5 5 6 6 6 6 6 6 5 5 6 6
4 3 3 2 3 3 4 3 3 2 2 3 3 3 4 4 4 4 5 5 5 5 5 5 5 5 5
3 3 2 1 3 2 3 3 2 2 2 2 2 2 2 3 2 2 3 3 3 3 3 3 3 3 3
4 4 2 2 2 2 2 2 2 2 2 1 1 1 1 1 1 1 2 2 2 2 2 2 2 2 3
3 3 3 3 2 1 1 1 1 0 1 1 1 1 1 1 1 1 1 1 1 1 1 1 1 1 1
2 2 2 1 1 0 -0 -1 -1 0 -0 1 1 0 0 0 0 0 0 0 0 0 0 0 0 0 0
1 1 -0 -0 -1 -1 -1 -1 -1 -1 -1 -0 0 0 0 -0 -0 -0 -1 -0 -0 -1 -1 -1 -1 -0 -0
-0 -1 -1 -1 -1 -2 -2 -2 -2 -1 -1 -2 -1 -1 -0 -0 -0 -1 -1 -1 -1 -1 -1 -1 -1 -1 -0
-1 -1 -1 -1 -2 -2 -2 -2 -2 -1 -2 -2 -2 -2 -1 -0 -1 -1 -1 -1 -2 -1 -1 -2 -2 -1 -0
-2 -2 -2 -2 -2 -2 -3 -3 -3 -3 -3 -3 -3 -3 -3 -1 -1 -1 -1 -1 -2 -1 -2 -2 -2 -2 -1
-2 -2 -3 -3 -3 -3 -3 -3 -4 -4 -4 -4 -4 -4 -4 -3 -3 -1 -2 -2 -2 -2 -2 -2 -3 -2 -2
-3 -2 -2 -3 -3 -3 -4 -4 -4 -4 -4 -4 -5 -5 -5 -5 -5 -3 -2 -2 -2 -2 -2 -3 -3 -3 -3
-3 -3 -3 -3 -3 -4 -4 -5 -4 -4 -4 -4 -5 -5 -7 -6 -6 -6 -6 -4 -4 -3 -2 -3 -4 -4 -4
-3 -3 -3 -3 -4 -4 -5 -5 -5 -5 -4 -4 -4 -5 -5 -7 -7 -7 -6 -6 -4 -4 -4 -4 -4 -4 -4
-4 -4 -4 -4 -4 -4 -4 -5 -5 -5 -5 -5 -5 -4 -5 -5 -6 -7 -6 -6 -5 -5 -5 -5 -4 -5 -5
-4 -4 -4 -4 -4 -4 -5 -5 -5 -5 -6 -5 -5 -5 -5 -5 -6 -6 -6 -6 -4 -4 -5 -5 -5 -4 -4
-4 -4 -5 -5 -5 -5 -6 -6 -6 -6 -6 -6 -6 -6 -6 -6 -5 -5 -5 -5 -5 -5 -5 -5 -6 -5 -5

GFSFLT2_925_temp_066.txt.gz
Temp
5 4 4 4 4 4 4 3 3 2 3 3 5 5 5 6 6 7 7 7 7 7 7 7 7 7 7
4 3 3 3 3 3 2 3 2 2 2 2 3 4 4 4 4 5 5 6 6 6 6 6 6 6 6
3 3 3 3 3 2 2 2 2 2 2 2 2 2 3 3 3 3 3 3 3 4 4 5 5 5 5
3 3 3 2 2 2 1 2 1 1 2 2 2 2 2 2 2 2 2 2 2 2 2 3 3 3 3
3 3 3 2 2 1 1 1 0 0 1 1 1 1 1 1 1 1 1 2 2 2 2 2 2 2 2
3 3 2 1 1 0 -0 -0 -0 -1 -0 -0 0 0 0 0 0 -0 0 0 1 1 1 1 1 1 1
2 2 1 1 0 -0 -1 -1 -1 -1 -1 -0 -0 -0 -0 -0 -0 -0 -0 0 0 0 -0 -0 -1 -1 -0
1 1 0 0 -0 -1 -1 -1 -2 -2 -2 -1 -1 -1 -0 -0 -1 -1 -1 -1 -1 -1 -1 -1 -0 -1 -1
-1 -1 -1 -1 -1 -2 -2 -2 -2 -2 -2 -2 -2 -1 -1 -1 -1 -1 -1 -1 -2 -2 -2 -2 -2 -2 -1
-2 -2 -2 -2 -2 -2 -2 -2 -3 -3 -3 -2 -3 -3 -2 -1 -1 -1 -1 -2 -1 -2 -1 -1 -2 -2 -2
-2 -2 -2 -2 -2 -2 -2 -2 -3 -3 -3 -3 -3 -3 -3 -3 -2 -2 -2 -2 -1 -1 -2 -2 -2 -3 -3
-2 -2 -2 -3 -3 -3 -3 -3 -3 -3 -4 -4 -4 -4 -4 -5 -4 -3 -2 -2 -2 -2 -2 -3 -3 -2 -2
-2 -2 -2 -2 -3 -3 -4 -4 -4 -4 -4 -4 -4 -5 -5 -5 -5 -5 -6 -3 -4 -3 -3 -3 -3 -3 -3
-2 -3 -3 -3 -3 -4 -4 -4 -4 -4 -4 -5 -5 -5 -5 -5 -5 -5 -5 -6 -3 -3 -4 -4 -3 -3 -4
-3 -3 -3 -3 -4 -4 -4 -4 -5 -5 -5 -5 -5 -5 -5 -5 -6 -5 -5 -5 -4 -5 -6 -5 -4 -4 -4
-3 -3 -4 -4 -4 -4 -4 -4 -5 -5 -5 -5 -5 -6 -5 -4 -4 -5 -5 -5 -5 -5 -6 -7 -6 -4 -4
-3 -3 -3 -4 -4 -5 -5 -5 -5 -5 -6 -6 -6 -7 -10 -9 -6 -5 -6 -6 -6 -6 -6 -7 -7 -6 -6